Find Starlink 31802

NORAD ID: 59636 Int'l Des: 2024-082 Owner: SPXS Country: US Constellation: starlink operational
LEOCIRCULAR

当前视图

正在加载3D地球...

About Starlink 31802

Starlink 31802 (NORAD 59636) is a starlink constellation satellite (v2 mini) launched May 3, 2024 by SPXS of US. It operates in LEO, CIRCULAR orbit with a mass of 730.00 kg.

即将过境

Passes for default location (London). Set your location on the main map for personalized predictions.

高度历史

Loading altitude history...

两行轨道根数

1 59636U 24082F 26255.78974259 .00002477 00000-0 99552-4 0 9990
2 59636 43.0037 163.4095 0000854 283.0961 76.9796 15.27558163133422
Epoch: Sep 12, 2026 • Age: 8 hours

当前状态

高度 494.9 km
远地点 / 近地点 N/A
速度 7.62 km/s
星下点 -40.91°S, 64.79°E
发射日期 May 3, 2024
运行时间 2.3 years
类型 internet

技术详情

分类 Payload
质量 730.00 kg
干质量 700.00 kg
总质量 730.00 kg
长度 0.30 m
直径 4.10 m
跨度 29.00 m
形状 Box + pan
制造商 SPXS
平台类型 Starlink V2M
阶段状态 In Orbit
所有者/国家 SPXS/US

Most Searched